Regional Weather Roundup
Issued by NWS Nashville, TN

Home | Current Version | Previous Version | Text Only | Print | Product List | Glossary On
Versions: 1 2 3 4 5 6 7 8 9 10 11 12 13 14 15 16 17 18 19 20 21 22 23 24 25 26 27 28 29 30 31 32 33 34 35 36 37 38 39 40 41 42 43 44 45 46 47 48 49 50
000
ASUS44 KOHX 250515
RWROHX
MIDDLE TENNESSEE HOURLY WEATHER ROUNDUP
NATIONAL WEATHER SERVICE NASHVILLE TN
1100 PM CST WED DEC 24 2014

NOTE: "FAIR" INDICATES FEW OR NO CLOUDS BELOW 12,000 FEET WITH
NO SIGNIFICANT WEATHER AND/OR OBSTRUCTIONS TO VISIBILITY.

* THESE REPORTS ARE NOT UNDER NWS QUALITY CONTROL AND MAY NOT
  REPORT WEATHER SUCH AS PRECIPITATION AND FOG.


TNZ005>011-023>034-057-059-062>066-078-080-250600
...NORTHERN MIDDLE TENNESSEE...

CITY           SKY/WX    TMP DP  RH WIND       PRES   REMARKS
CLARKSVILLE    CLOUDY    41  36  82 W10       29.90R
CROSSVILLE     CLOUDY    38  35  89 W10       29.87S WCI  31
GALLATIN       CLOUDY    41  38  89 SW6       29.91R
DICKSON        CLOUDY    37  36  93 W7        29.90R WCI  32
LEBANON        CLOUDY    41  36  82 SW5       29.89R
LIVINGSTON     MOCLDY    36  35  96 W9        29.86R WCI  29
NASHVILLE      CLOUDY    42  36  79 SW5       29.92R
WEST NASHVILLE CLOUDY    39  39 100 SW8       29.92R WCI  34
SMYRNA         CLOUDY    41  36  82 W8        29.94R
SPARTA         CLOUDY    39  37  93 W5        29.89R
$$
TNZ056-058-060-061-075>077-079-093>097-250600
...SOUTHERN MIDDLE TENNESSEE...

CITY           SKY/WX    TMP DP  RH WIND       PRES   REMARKS
COLUMBIA       CLOUDY    41  41 100 W9        29.92R
LEWISBURG      CLOUDY    41  36  82 W6        29.93R
MCMINNVILLE    CLOUDY    39  36  87 W3        29.91R
MURFREESBORO   CLOUDY    42  36  79 SW7       29.92R
SHELBYVILLE    CLOUDY    41  37  87 SW6       29.94R
TULLAHOMA      CLOUDY    37  36  93 W8        29.93R WCI  31
WINCHESTER     CLOUDY    39  34  81 W6        29.94R WCI  35
$$


...KEY TO REMARKS...
VSB - VISIBILITY IN MILES
WCI - WIND CHILL INDEX
HX  - HEAT INDEX



USA.gov is the U.S. government's official web portal to all federal, state and local government web resources and services.